Location: Nasgenstadt
(48.2786°N, 9.7553°E)
Time: 16:56:31
(UTC+02:00)

ISS - Pass Details

Date: 30 March 2017
Orbit: 401 x 409 km, 51.6° (Epoch: 28 April)

Event Time Altitude Azimuth Distance (km) Brightness Sun altitude
Rises 20:37:55 0° 227° (SW) 2,309 0.5 -8.9°
Reaches altitude 10° 20:40:02 10° 221° (SW) 1,455 -0.7 -9.2°
Maximum altitude 20:43:09 43° 148° (SSE) 579 -3.4 -9.7°
Enters shadow 20:45:59 12° 77° (ENE) 1,349 -1.7 -10.1°
